カタログに戻る

KUIPER-00551

運用中通信VLEO
NORAD 69618·PAYLOAD·🇺🇸 United States

打ち上げ Jun 17, 2026 から Guiana Space Centre

Loading…

次のパス (今後24時間)

TLE

最新Source: CelesTrak SupGP

元期: Sep 14, 2026, 23:22 UTC

1 69618C 26140AC  26257.97409722  .00002974  00000+0  77021-4 0  2574
2 69618  51.8777 323.9378 0011809 130.3469 276.9768 15.38365075    16

AllMySatでKUIPER-00551をリアルタイム追跡

Download on the App Store